| time (UTC) | temp F | wind direction | speed knots | gust knots | rain 1hr in | rain 24hr in | rain mn in | humidity % | barometer mb |
| 20260503013101 | 65 | 93 | 1.7 | 5.2 | 0.00 | 0.00 | 0.00 | 34 | 1016.3 |
| 20260503011554 | 65 | 74 | 0.0 | 0.0 | 0.00 | 0.00 | 0.00 | 34 | 1016.2 |
| 20260503010058 | 64 | 74 | 0.0 | 0.0 | 0.00 | 0.00 | 0.00 | 34 | 1016.3 |
| 20260503004610 | 65 | 74 | 0.0 | 2.6 | 0.00 | 0.00 | 0.00 | 34 | 1016.5 |
| 20260503003103 | 65 | 53 | 2.6 | 3.5 | 0.00 | 0.00 | 0.00 | 34 | 1016.5 |
| 20260503001605 | 65 | 34 | 1.7 | 7.8 | 0.00 | 0.00 | 0.00 | 34 | 1016.7 |
| 20260503000049 | 66 | 65 | 3.5 | 7.8 | 0.00 | 0.00 | 0.00 | 34 | 1016.9 |
| 20260502234550 | 67 | 71 | 4.3 | 10.4 | 0.00 | 0.00 | 0.00 | 33 | 1017.1 |
| 20260502233031 | 67 | 5 | 1.7 | 12.2 | 0.00 | 0.00 | 0.00 | 32 | 1017.3 |
| 20260502231530 | 67 | 248 | 1.7 | 5.2 | 0.00 | 0.00 | 0.00 | 33 | 1017.3 |
| 20260502230034 | 65 | 5 | 5.2 | 10.4 | 0.00 | 0.00 | 0.00 | 35 | 1017.7 |
| 20260502224529 | 65 | 21 | 4.3 | 11.3 | 0.00 | 0.00 | 0.00 | 35 | 1017.8 |
| 20260502223031 | 65 | 255 | 1.7 | 4.3 | 0.00 | 0.00 | 0.00 | 34 | 1018.0 |
| 20260502221528 | 67 | 31 | 0.9 | 8.7 | 0.00 | 0.00 | 0.00 | 34 | 1018.0 |
| 20260502220035 | 65 | 65 | 3.5 | 9.6 | 0.00 | 0.00 | 0.00 | 34 | 1018.4 |
| 20260502214530 | 66 | 53 | 4.3 | 8.7 | 0.00 | 0.00 | 0.00 | 35 | 1018.5 |
| 20260502213028 | 67 | 15 | 7.8 | 15.6 | 0.00 | 0.00 | 0.00 | 34 | 1018.7 |
| 20260502211528 | 65 | 79 | 0.9 | 12.2 | 0.00 | 0.00 | 0.00 | 36 | 1018.8 |
| 20260502210031 | 65 | 28 | 5.2 | 11.3 | 0.00 | 0.00 | 0.00 | 37 | 1019.2 |
| 20260502204534 | 65 | 328 | 5.2 | 12.2 | 0.00 | 0.00 | 0.00 | 37 | 1019.1 |
| 20260502203029 | 65 | 83 | 1.7 | 8.7 | 0.00 | 0.00 | 0.00 | 37 | 1019.1 |
| 20260502201530 | 63 | 60 | 3.5 | 13.0 | 0.00 | 0.00 | 0.00 | 39 | 1019.3 |
| 20260502200029 | 65 | 327 | 7.0 | 13.9 | 0.00 | 0.00 | 0.00 | 36 | 1019.7 |
| 20260502194531 | 64 | 26 | 10.4 | 15.6 | 0.00 | 0.00 | 0.00 | 37 | 1019.7 |
| 20260502193035 | 65 | 29 | 7.0 | 13.0 | 0.00 | 0.00 | 0.00 | 36 | 1019.8 |
| 20260502191532 | 63 | 64 | 8.7 | 13.9 | 0.00 | 0.00 | 0.00 | 37 | 1019.9 |
| 20260502190033 | 64 | 39 | 9.6 | 14.8 | 0.00 | 0.00 | 0.00 | 39 | 1020.1 |
| 20260502184550 | 63 | 28 | 8.7 | 13.9 | 0.00 | 0.00 | 0.00 | 40 | 1020.0 |
| 20260502183032 | 64 | 31 | 1.7 | 12.2 | 0.00 | 0.00 | 0.00 | 38 | 1020.1 |
| 20260502181532 | 64 | 30 | 5.2 | 11.3 | 0.00 | 0.00 | 0.00 | 39 | 1020.4 |
| 20260502163034 | 61 | 53 | 7.0 | 13.9 | 0.00 | 0.00 | 0.00 | 40 | 1020.6 |
| 20260502161536 | 61 | 55 | 7.8 | 11.3 | 0.00 | 0.00 | 0.00 | 41 | 1020.8 |
| 20260502151532 | 58 | 78 | 7.8 | 11.3 | 0.00 | 0.00 | 0.00 | 44 | 1020.4 |
| 20260502123043 | 44 | 41 | 8.7 | 13.0 | 0.00 | 0.00 | 0.00 | 60 | 1018.9 |
| 20260502121530 | 45 | 61 | 9.6 | 13.0 | 0.00 | 0.00 | 0.00 | 59 | 1018.8 |
| 20260502114538 | 45 | 49 | 7.8 | 12.2 | 0.00 | 0.00 | 0.00 | 57 | 1018.0 |
| 20260502113041 | 46 | 62 | 7.8 | 13.0 | 0.00 | 0.00 | 0.00 | 54 | 1017.8 |
| 20260502111534 | 48 | 76 | 11.3 | 15.6 | 0.00 | 0.00 | 0.00 | 52 | 1017.7 |
| 20260502110038 | 48 | 71 | 8.7 | 11.3 | 0.00 | 0.00 | 0.00 | 51 | 1017.6 |
| 20260502104539 | 48 | 67 | 8.7 | 11.3 | 0.00 | 0.00 | 0.00 | 50 | 1017.3 |
| 20260502103037 | 49 | 73 | 8.7 | 12.2 | 0.00 | 0.00 | 0.00 | 47 | 1017.2 |
| 20260502101552 | 49 | 80 | 9.6 | 12.2 | 0.00 | 0.00 | 0.00 | 48 | 1017.0 |
| 20260502091532 | 49 | 39 | 6.1 | 13.9 | 0.00 | 0.00 | 0.00 | 42 | 1016.7 |
| 20260502070049 | 43 | 36 | 3.5 | 6.1 | 0.00 | 0.00 | 0.00 | 46 | 1015.8 |
| 20260502064542 | 44 | 36 | 4.3 | 7.0 | 0.00 | 0.00 | 0.00 | 44 | 1015.6 |
| 20260502063037 | 44 | 21 | 3.5 | 6.1 | 0.00 | 0.00 | 0.00 | 43 | 1015.7 |
| 20260502061537 | 45 | 39 | 5.2 | 7.8 | 0.00 | 0.00 | 0.00 | 42 | 1015.7 |
| 20260502060052 | 46 | 31 | 3.5 | 5.2 | 0.00 | 0.00 | 0.00 | 41 | 1015.7 |
| 20260502054544 | 47 | 34 | 4.3 | 7.8 | 0.00 | 0.00 | 0.00 | 39 | 1015.6 |
| 20260502053049 | 47 | 37 | 5.2 | 7.8 | 0.00 | 0.00 | 0.00 | 37 | 1015.6 |
| 20260502051547 | 48 | 34 | 6.1 | 8.7 | 0.00 | 0.00 | 0.00 | 36 | 1015.7 |
| 20260502050045 | 49 | 51 | 5.2 | 7.8 | 0.00 | 0.00 | 0.00 | 36 | 1015.6 |
| 20260502044537 | 50 | 45 | 5.2 | 8.7 | 0.00 | 0.00 | 0.00 | 33 | 1015.6 |
| 20260502043044 | 51 | 32 | 5.2 | 7.8 | 0.00 | 0.00 | 0.00 | 33 | 1015.5 |
| 20260502041546 | 51 | 34 | 4.3 | 7.0 | 0.00 | 0.00 | 0.00 | 31 | 1015.4 |
| 20260502040052 | 51 | 30 | 5.2 | 8.7 | 0.00 | 0.00 | 0.00 | 31 | 1015.6 |
| 20260502034550 | 52 | 36 | 5.2 | 7.8 | 0.00 | 0.00 | 0.00 | 30 | 1015.5 |
| 20260502033102 | 54 | 41 | 5.2 | 7.8 | 0.00 | 0.00 | 0.00 | 29 | 1015.3 |
| 20260502031554 | 55 | 30 | 4.3 | 7.0 | 0.00 | 0.00 | 0.00 | 29 | 1015.0 |
| 20260502030059 | 56 | 33 | 2.6 | 5.2 | 0.00 | 0.00 | 0.00 | 28 | 1015.1 |
| 20260502024554 | 58 | 329 | 1.7 | 4.3 | 0.00 | 0.00 | 0.00 | 26 | 1014.9 |
| 20260502023109 | 62 | 317 | 2.6 | 3.5 | 0.00 | 0.00 | 0.00 | 24 | 1014.9 |
| 20260502021551 | 65 | 287 | 2.6 | 3.5 | 0.00 | 0.00 | 0.00 | 22 | 1014.6 |
| 20260502020104 | 66 | 287 | 2.6 | 3.5 | 0.00 | 0.00 | 0.00 | 21 | 1014.7 |
| 20260502014600 | 68 | 287 | 3.5 | 7.8 | 0.00 | 0.00 | 0.00 | 19 | 1014.7 |